This is the latest recevied weather packets stored in our database for station/object N2ZVN. If no packets are shown the sender has not sent any weather packets the latest 10 day(s).
| Time | Temp. | Humidity | Pressure | Rain* | Wind** | Luminosity | Snow |
|---|---|---|---|---|---|---|---|
| 1788651043 | 20.56° C | 79% | 1015.8 hPa | 0 mm | - | 3 W/m² | - |
| 1788650734 | 21.11° C | 80% | 1015.9 hPa | 0 mm | - | 5 W/m² | - |
| 1788650430 | 21.11° C | 75% | 1015.8 hPa | 0 mm | - | 7 W/m² | - |
| 1788650130 | 21.11° C | 74% | 1015.8 hPa | 0 mm | - | 9 W/m² | - |
| 1788649826 | 21.67° C | 74% | 1016 hPa | 0 mm | - | 11 W/m² | - |
| 1788649526 | 21.67° C | 74% | 1016 hPa | 0 mm | - | 15 W/m² | - |
| 1788649224 | 21.67° C | 73% | 1015.8 hPa | 0 mm | - | 18 W/m² | - |
| 1788648919 | 21.67° C | 73% | 1015.8 hPa | 0 mm | - | 21 W/m² | - |
| 1788648615 | 21.67° C | 73% | 1015.8 hPa | 0 mm | - | 22 W/m² | - |
| 1788648309 | 21.67° C | 72% | 1015.9 hPa | 0 mm | - | 21 W/m² | - |
| 1788648008 | 21.67° C | 71% | 1015.6 hPa | 0 mm | - | 22 W/m² | - |
| 1788647707 | 21.67° C | 69% | 1015.7 hPa | 0 mm | - | 24 W/m² | - |
| 1788647402 | 21.67° C | 68% | 1015.5 hPa | 0 mm | - | 22 W/m² | - |
| 1788647101 | 21.67° C | 68% | 1015.6 hPa | 0 mm | - | 22 W/m² | - |
| 1788646797 | 21.67° C | 69% | 1015.6 hPa | 0 mm | - | 26 W/m² | - |
| 1788646493 | 22.22° C | 68% | 1015.5 hPa | 0 mm | - | 23 W/m² | - |
| 1788646189 | 22.22° C | 67% | 1015.8 hPa | 0 mm | - | 20 W/m² | - |
| 1788645885 | 22.22° C | 67% | 1015.4 hPa | 0 mm | - | 20 W/m² | - |
| 1788645584 | 22.22° C | 67% | 1015.5 hPa | 0 mm | - | 38 W/m² | - |
| 1788645279 | 22.22° C | 67% | 1015.4 hPa | 0 mm | - | 20 W/m² | - |
| 1788644976 | 22.22° C | 67% | 1015.5 hPa | 0 mm | - | 20 W/m² | - |
| 1788644672 | 22.22° C | 67% | 1015.5 hPa | 0 mm | - | 20 W/m² | - |
| 1788644372 | 22.22° C | 67% | 1015.6 hPa | 0 mm | - | 26 W/m² | - |
| 1788644068 | 22.22° C | 66% | 1015.4 hPa | 0 mm | - | 31 W/m² | - |
| 1788643763 | 22.22° C | 66% | 1015.2 hPa | 0 mm | - | 22 W/m² | - |
* Rain latest hour (hover to see other rain measurements)
** Current wind speed in m/s (hover to see current wind gust speed)